Theta_e
336 331 330 332 328 330 329 327 330 328 327 326 326 326 326 324 323 324 323 323 322 321
333 332 332 337 334 330 331 326 328 325 324 325 325 325 325 322 321 321 321 321 321 320
332 332 332 332 331 330 329 328 325 324 324 324 324 324 324 321 321 319 319 319 319 319
330 331 331 330 329 329 329 327 323 322 322 322 323 323 323 321 319 317 315 316 315 315
331 332 332 330 329 329 326 325 323 322 321 321 321 321 320 319 318 316 313 313 315 314
330 329 329 329 329 327 325 323 322 320 320 319 320 319 319 317 316 316 314 314 313 312
328 328 328 329 328 326 323 321 320 320 319 319 319 319 317 315 315 314 313 314 314 313
331 330 328 325 323 323 322 319 319 317 317 318 318 316 314 314 313 313 313 314 314 314
327 325 324 324 322 320 318 318 317 315 314 313 313 307 306 308 311 312 311 311 312 314
324 321 321 320 319 318 317 317 315 313 312 310 311 305 303 305 307 307 307 308 309 310
320 318 318 318 316 316 316 314 313 311 310 309 309 304 302 302 305 306 306 306 306 307
319 317 315 313 314 313 310 310 309 309 308 308 306 302 300 301 305 304 305 306 307 307
316 314 312 313 310 309 308 306 306 306 307 307 305 302 300 301 305 304 304 306 306 305
314 314 314 311 309 308 307 306 306 305 306 306 307 307 300 299 303 304 303 302 303 305
Wind_Speed
6 5 5 5 5 2 2 3 4 2 4 6 6 6 6 5 6 6 6 7 7 7
8 7 5 3 2 2 4 4 3 5 6 6 7 7 7 6 7 6 8 8 7 7
9 8 6 4 5 5 4 5 6 7 7 8 8 8 7 7 7 7 7 7 8 8
9 8 8 6 5 5 5 6 7 9 9 9 9 8 8 8 9 10 11 10 11 11
8 6 6 5 5 5 7 7 8 9 10 10 11 10 10 10 10 11 14 13 10 11
8 9 7 7 7 7 7 8 9 9 10 11 11 11 9 10 12 12 14 13 12 12
10 8 8 6 5 6 7 9 9 9 11 11 12 11 11 12 13 14 14 13 14 14
6 6 5 5 7 7 7 7 9 10 11 11 10 9 11 13 14 14 13 13 13 14
6 5 6 6 6 7 8 8 8 10 11 12 10 11 12 11 13 14 14 14 14 14
4 6 6 6 6 6 6 7 9 10 12 14 15 15 18 19 14 14 14 16 15 13
6 8 5 4 6 6 7 9 10 11 13 15 13 15 16 14 15 14 17 18 18 19
6 5 5 7 7 7 9 11 11 12 14 16 15 14 14 13 15 16 18 16 17 18
5 5 7 6 7 8 9 12 12 14 14 16 17 20 19 17 12 16 13 15 17 22
5 5 5 7 8 9 11 12 12 14 14 16 16 15 12 12 8 9 10 11 13 14
Wind_Direction
197 196 201 213 227 240 337 313 287 289 260 251 252 258 259 265 268 267 273 269 265 270
195 217 219 233 93 234 238 264 291 335 297 280 267 264 262 263 266 283 278 269 267 270
197 201 205 223 230 251 273 273 272 271 268 267 265 262 257 261 260 266 271 274 268 266
198 199 207 210 223 237 253 260 263 266 268 267 265 261 257 254 255 263 268 271 277 281
193 200 210 216 229 241 250 256 264 270 269 270 268 268 264 266 267 263 266 265 264 269
193 200 206 217 227 238 252 261 267 269 269 271 270 270 268 272 272 268 265 263 251 255
192 197 212 221 236 252 255 258 262 263 268 268 269 269 270 268 265 260 262 262 260 261
170 184 212 235 246 254 262 267 270 274 274 274 274 270 273 271 269 267 265 257 256 253
181 208 226 233 250 254 259 264 275 279 282 286 282 291 281 276 283 279 275 268 262 258
213 243 245 250 261 273 282 281 281 280 280 277 276 263 264 265 271 274 274 271 267 263
255 260 274 294 297 293 292 287 284 284 281 277 280 274 275 271 275 271 265 260 260 258
259 280 315 300 299 314 304 291 291 289 290 286 284 280 271 269 276 272 266 263 259 258
7 321 293 305 311 296 293 289 286 282 278 283 284 275 266 259 265 266 267 264 258 250
301 300 321 289 277 280 281 282 285 285 279 274 269 277 285 275 279 288 291 286 276 268